Regional Weather Roundup
Issued by NWS

Home | Current Version | Previous Version | Graphics & Text | Print | Product List | Glossary On
Versions: 1 2 3 4 5 6 7 8 9 10 11 12 13 14 15 16 17 18 19 20 21 22 23 24 25 26 27 28 29 30 31 32 33 34 35 36 37 38 39 40 41 42 43 44 45 46 47 48 49 50
000
ASUS43 KIND 250009
RWRIN

WEATHER ROUNDUP FOR INDIANA
NATIONAL WEATHER SERVICE INDIANAPOLIS IN
800 PM EDT FRI OCT 24 2014

NOTE: "FAIR" INDICATES FEW OR NO CLOUDS BELOW 12,000 FEET WITH NO
SIGNIFICANT WEATHER AND/OR OBSTRUCTIONS TO VISIBILITY.

* - STATION DOES NOT REPORT WEATHER SUCH AS PRECIPITATION OR FOG.

+ - STATION NOT QUALITY CONTROLLED BY THE NATIONAL WEATHER SERVICE.
    USE DATA WITH CAUTION...ESPECIALLY DEWPOINT AND RELATIVE
    HUMIDITY OBSERVATIONS.

INZ001>003-010>013-019-020-250100-
NORTHWEST INDIANA

CITY           SKY/WX    TMP DP  RH WIND       PRES   REMARKS
GARY /AIRPORT/ MOCLDY    52  48  87 CALM      29.97S
KNOX *+        CLEAR     54  46  75 CALM      29.97F
LA PORTE +     PTCLDY    52  48  88 CALM      29.99R
6HR MIN TEMP:  52; 6HR MAX TEMP:  67;

MICHIGAN CITY+ PTCLDY    52  48  87 CALM      29.98S
MONTICELLO +   CLEAR     58  51  77 S3        29.98F
RENSSELAER +   PTCLDY    57  46  67 CALM      29.98S
VALPARAISO     PTCLDY    57  47  69 CALM      29.98S
6HR MIN TEMP:  55; 6HR MAX TEMP:  66;


$$

LMZ046-743>745-250100-
SOUTHERN LAKE MICHIGAN

STATION/POSITION TIME  TEMP WIND        PRES
                       AIR  DIR/SP/G
                 (UTC) (F)  (DEG/KT/KT) (MB)
MICHIGAN CITY    0000   58  110/  5/  6   N/A

$$

INZ004-005-014>016-021>024-250100-
NORTH CENTRAL INDIANA

CITY           SKY/WX    TMP DP  RH WIND       PRES   REMARKS
ELKHART        CLEAR     54  46  76 CALM      29.99R
GOSHEN         PTCLDY    55  49  80 CALM      29.98S
6HR MIN TEMP:  54; 6HR MAX TEMP:  65;

LOGANSPORT +   CLEAR     52  46  82 S5        30.01S
PERU/GRISSOM   PTCLDY    54  54 100 SW6       30.00S
6HR MIN TEMP:  54; 6HR MAX TEMP:  66;

ROCHESTER +    CLEAR     59  52  77 S3        30.00S
SOUTH BEND     CLEAR     52  46  80 CALM      29.99S
6HR MIN TEMP:  52; 6HR MAX TEMP:  66;

WARSAW +       CLEAR     57  50  77 CALM      30.00R

$$

INZ006>009-017-018-025>027-250100-
NORTHEAST INDIANA

CITY           SKY/WX    TMP DP  RH WIND       PRES   REMARKS
ANGOLA *+      PTCLDY    52  48  87 CALM      29.99S
AUBURN +       PTCLDY    52  46  82 CALM      30.00S
FORT WAYNE     MOCLDY    52  48  86 S7        30.01S
6HR MIN TEMP:  52; 6HR MAX TEMP:  64;

HUNTINGTON +   PTCLDY    56  51  81 CALM      30.00S
6HR MIN TEMP:  56; 6HR MAX TEMP:  64;


$$

INZ028-029-035-036-043>045-051>053-250100-
WEST CENTRAL INDIANA

CITY           SKY/WX    TMP DP  RH WIND       PRES   REMARKS
GREENCASTLE +  PTCLDY    54  50  87 CALM      30.03S
LAFAYETTE      PTCLDY    55  50  83 CALM      30.00S
6HR MIN TEMP:  54; 6HR MAX TEMP:  66;

TERRE HAUTE    CLEAR     56  50  80 S3        30.02S
6HR MIN TEMP:  55; 6HR MAX TEMP:  68;


$$

INZ030>032-037>040-046>048-054>057-064-065-250100-
CENTRAL INDIANA

CITY           SKY/WX    TMP DP  RH WIND       PRES   REMARKS
CP ATTERBURY + PTCLDY    59  48  67 CALM      30.05R
FRANKFORT +    CLEAR     56  51  85 S3        30.03S
GREENWOOD *+   MOCLDY    59  48  67 CALM      30.04
INDIANAPOLIS   MOCLDY    59  50  72 S6        30.02S
6HR MIN TEMP:  56; 6HR MAX TEMP:  66;

-EAGLE CREEK   PTCLDY    58  51  78 CALM      30.02S
6HR MIN TEMP:  58; 6HR MAX TEMP:  66;

KOKOMO *+      PTCLDY    55  46  71 SW5       30.02R
MARION +       PTCLDY    53  47  81 SW6       30.02S
MT COMFORT *+  MOCLDY    55  46  71 S3        30.04R
SHELBYVILLE    PTCLDY    59  49  69 S5        30.03R
6HR MIN TEMP:  57; 6HR MAX TEMP:  68;

ZIONSVILLE +   PTCLDY    56  48  74 CALM      30.03R
6HR MIN TEMP:  56; 6HR MAX TEMP:  66;


$$

INZ033-034-041-042-049-050-058-059-250100-
EAST CENTRAL INDIANA

CITY           SKY/WX    TMP DP  RH WIND       PRES   REMARKS
MUNCIE         MOCLDY    58  50  75 SW3       30.03R
6HR MIN TEMP:  58; 6HR MAX TEMP:  65;


$$

INZ060-061-067>069-081>083-085>088-250100-
SOUTHWEST INDIANA

CITY           SKY/WX    TMP DP  RH WIND       PRES   REMARKS
EVANSVILLE     PTCLDY    61  53  75 CALM      30.05R
6HR MIN TEMP:  61; 6HR MAX TEMP:  70;

HUNTINGBURG *+ PTCLDY    57  48  72 CALM      30.06R
6HR MIN TEMP:  57; 6HR MAX TEMP:  70;

WASHINGTON +   PTCLDY    53  51  91 S3        30.03S
6HR MIN TEMP:  53; 6HR MAX TEMP:  69;


$$

INZ062-063-066-070>080-084-089>092-250100-
SOUTH CENTRAL AND SOUTHEAST INDIANA

CITY           SKY/WX    TMP DP  RH WIND       PRES   REMARKS
BLOOMINGTON    MOCLDY    54  49  83 CALM      30.04S
6HR MIN TEMP:  54; 6HR MAX TEMP:  68;


$$




USA.gov is the U.S. government's official web portal to all federal, state and local government web resources and services.